Location: Brooks Farm Pond
(32.9618°N, 86.0700°W)
Time: 20:54:04
(UTC+00:00)

NOAA 12 - Pass Details

Date: 29 October 2020
Orbit: 795 x 815 km, 98.5° (Epoch: 30 November)

Event Time Altitude Azimuth Distance (km) Brightness Sun altitude
Rises 23:20:17 0° 166° (SSE) 3,302 7.3 -5.9°
Reaches altitude 10° 23:22:36 10° 166° (SSE) 2,378 6.6 -6.4°
Maximum altitude 23:27:52 89° 255° (WSW) 814 4.2 -7.5°
Drops below altitude 10° 23:33:12 10° 347° (NNW) 2,403 6.6 -8.6°
Sets 23:35:33 0° 348° (NNW) 3,340 7.3 -9.0°
